GFSNW_sfc_dewp_123.txt.gz
Dewpoint
40 40 40 39 37 39 38 32 36 33 38 30 23 16 13 19 11 17 15 16 16 15 14 12 10 9 10 11 14 13 13 19 9 5 12 24 26 28 34 31 20 20 17 16
40 41 41 38 39 38 32 34 23 33 37 32 25 19 16 16 15 13 13 13 13 15 14 13 12 11 12 14 16 16 23 16 14 7 3 25 26 26 26 29 32 27 23 24
40 40 39 38 40 38 36 36 33 27 28 23 23 19 15 12 15 13 13 14 17 19 20 18 19 16 16 23 22 31 26 19 15 10 8 25 17 26 22 20 22 22 28 30
40 40 39 37 40 38 36 39 30 26 30 26 20 19 15 16 15 17 19 17 21 23 21 19 19 23 24 20 25 23 23 17 17 12 6 3 4 7 15 18 20 18 15 17
40 40 39 37 40 39 35 36 30 25 21 22 20 19 17 14 15 14 22 23 24 24 23 27 26 22 23 24 26 23 20 24 18 12 9 6 2 3 9 12 13 13 13 12
41 39 38 39 41 39 33 30 31 30 22 21 20 20 18 17 23 22 22 29 29 22 21 23 24 26 26 25 25 25 25 22 17 13 10 11 6 4 2 5 8 12 8 11
40 39 39 39 41 38 32 31 28 36 23 18 17 16 17 21 21 23 21 21 21 22 27 28 26 23 23 24 22 24 24 22 20 18 16 10 7 4 3 6 6 7 6 5
40 40 40 40 41 38 33 35 33 32 27 17 14 18 21 20 20 22 20 21 23 29 27 26 19 16 16 15 19 17 18 20 19 18 15 16 11 20 15 15 13 10 11 12
41 41 40 40 41 39 35 34 35 32 33 19 17 19 20 19 18 19 20 24 27 30 26 24 18 15 15 17 23 29 29 31 26 19 19 12 19 16 19 21 18 30 33 32
42 40 40 40 41 41 37 34 39 31 35 23 24 23 23 24 23 22 21 25 25 26 27 25 19 14 15 17 22 22 25 28 26 22 23 17 30 26 25 21 28 36 36 37
42 41 40 41 41 41 39 35 37 32 33 28 27 25 24 24 23 21 24 26 29 26 25 24 19 21 22 23 21 27 26 25 24 26 25 21 35 30 32 35 35 37 38 36
41 41 41 41 41 42 40 34 36 37 34 30 34 32 31 28 26 25 25 24 23 29 29 28 27 25 24 23 21 30 26 29 27 29 28 35 35 34 36 37 38 37 36 36
41 40 41 41 41 42 41 36 36 39 36 33 29 27 30 32 33 32 26 23 25 25 33 32 29 23 20 23 21 27 31 34 31 31 31 32 35 35 35 35 34 36 37 33
42 41 41 42 41 42 41 39 37 37 34 31 26 26 28 28 30 32 33 30 29 29 29 31 28 25 23 21 22 24 32 33 29 33 32 30 32 35 35 36 36 36 37 32
41 41 41 41 40 42 42 42 40 37 33 31 28 28 27 28 29 29 30 32 30 26 32 31 27 24 25 25 23 30 28 30 28 28 33 31 34 35 33 34 32 31 30 30
41 41 40 40 42 42 40 36 38 38 38 33 27 25 25 26 28 28 29 29 29 28 30 29 27 27 29 28 22 29 28 33 31 30 29 30 32 32 30 30 30 30 28 28
41 41 41 41 42 39 37 35 39 38 39 36 28 24 26 29 30 31 29 30 29 28 32 30 26 25 32 29 22 30 27 28 29 28 27 27 26 26 27 28 27 28 27 27
40 41 40 41 41 39 34 40 41 39 37 34 27 25 25 30 31 32 31 30 31 32 30 30 29 30 33 28 28 26 24 24 26 23 25 24 25 25 24 25 26 26 25 26
40 40 40 40 37 37 34 41 41 41 37 32 28 26 29 31 32 36 34 37 31 31 32 29 30 29 29 29 26 24 24 22 21 21 23 21 23 23 23 23 24 24 24 24
39 39 37 32 36 41 39 39 35 35 35 34 29 26 28 26 33 34 33 35 32 30 30 31 32 28 27 26 25 24 22 19 19 19 19 19 20 21 21 21 22 23 22 23
38 34 33 38 40 37 36 31 31 30 29 30 26 24 25 26 29 30 30 34 34 28 30 29 29 29 26 25 24 23 20 18 17 17 17 17 19 18 19 20 21 21 22 22
35 36 39 38 34 34 29 28 29 26 19 24 28 26 25 30 31 30 33 29 33 26 32 30 25 24 23 23 22 21 19 16 15 15 14 15 15 17 17 18 19 19 21 22
39 36 34 33 31 26 24 21 24 24 26 30 31 30 30 32 32 34 33 28 26 30 29 23 23 23 22 21 19 17 16 17 15 14 14 14 15 15 17 16 17 19 20 20
33 31 27 28 27 25 23 22 23 28 32 32 31 30 30 33 31 33 28 29 29 26 23 23 24 23 21 21 19 17 16 18 19 17 15 15 15 15 17 17 17 18 17 19
31 32 25 28 31 33 35 35 33 33 35 33 32 32 33 33 31 31 29 28 24 23 26 26 25 23 21 20 20 20 20 20 20 20 18 17 15 15 16 16 17 17 17 17
32 31 30 32 33 32 33 35 35 35 34 34 33 32 28 30 30 29 26 22 21 27 26 25 23 22 22 22 22 22 22 21 21 21 19 19 16 15 16 17 18 15 17 15
30 30 32 30 31 32 32 35 33 34 35 32 31 28 28 31 27 26 28 28 27 25 25 25 25 23 23 23 23 22 21 21 21 20 19 18 17 17 18 16 18 16 17 16

GFSNW_sfc_dewp_129.txt.gz
Dewpoint
43 41 40 39 38 37 36 37 32 36 40 34 34 19 18 18 9 17 15 18 15 12 13 12 15 15 21 24 26 22 21 21 15 17 19 22 21 27 33 26 23 24 23 24
41 40 40 39 37 37 37 35 26 36 38 28 26 20 16 15 13 12 11 12 14 17 17 17 19 19 24 23 26 25 26 23 18 12 20 21 22 21 21 31 30 23 22 25
39 40 41 39 38 37 36 37 28 29 34 27 26 23 20 15 19 13 12 12 18 21 20 20 19 20 22 25 22 30 31 25 21 16 13 17 24 23 14 23 23 21 21 21
41 40 40 38 39 38 38 38 32 30 28 26 24 24 19 19 18 17 17 18 21 21 20 21 20 21 21 22 25 29 29 23 25 23 22 20 18 15 10 10 13 21 18 20
42 41 39 38 38 39 37 33 31 29 25 25 22 22 19 16 15 22 22 22 23 25 23 23 20 22 22 23 24 25 30 22 27 22 22 22 14 14 12 12 10 8 15 16
41 41 39 38 39 39 36 32 32 34 27 23 24 22 21 23 26 24 22 23 25 25 23 24 24 25 25 26 25 30 30 24 21 17 17 18 15 20 19 19 11 16 16 30
41 41 39 39 40 39 38 37 35 32 23 23 22 20 19 24 26 25 21 23 22 25 26 27 26 27 29 29 32 34 26 25 25 19 20 11 22 28 28 28 31 32 30 30
42 40 39 40 40 39 37 38 37 34 25 21 17 22 20 21 22 21 23 22 26 26 26 25 20 25 25 27 28 23 24 25 24 15 18 16 23 25 28 30 28 33 33 30
41 40 40 40 40 40 38 40 40 36 30 21 18 20 21 20 21 23 24 27 26 28 27 24 18 20 19 18 22 24 25 29 27 25 19 15 23 27 24 26 24 32 35 32
41 40 40 40 41 41 39 38 40 37 31 24 24 24 24 24 22 22 26 25 25 28 22 19 19 19 21 21 16 20 22 20 22 23 21 24 28 27 26 19 21 34 35 34
42 41 40 41 41 41 40 37 39 36 32 30 29 27 25 24 26 24 26 26 26 25 21 20 21 20 21 20 22 23 22 16 18 20 8 11 32 26 22 29 33 34 34 34
42 41 40 41 41 41 40 34 38 37 33 33 33 33 33 31 29 27 27 24 25 28 22 22 22 22 21 19 17 29 17 28 25 27 26 33 35 33 35 35 33 34 35 35
42 42 41 41 41 41 41 38 36 35 32 32 30 28 31 32 29 30 26 30 30 28 29 25 24 21 21 15 20 22 31 34 25 27 30 29 33 35 35 36 35 34 31 30
42 42 42 42 41 41 40 40 38 35 33 25 29 31 30 32 32 31 31 30 29 30 27 25 23 23 24 22 22 23 31 32 28 27 30 29 33 35 34 33 31 30 28 28
41 41 42 41 40 41 40 41 41 39 33 30 27 30 30 28 28 29 30 30 28 27 25 22 22 25 23 25 24 31 30 29 24 25 32 32 33 33 32 28 29 30 27 26
43 41 41 41 42 43 38 32 38 36 35 28 23 30 29 29 31 29 28 30 30 28 27 26 27 26 26 25 23 28 29 31 32 30 30 35 32 29 26 26 28 28 26 26
42 42 42 42 43 40 35 34 38 38 37 29 25 25 30 28 29 28 29 28 28 29 28 26 26 26 26 25 23 32 26 30 32 28 25 26 25 25 24 25 25 25 24 24
42 42 42 42 42 40 38 38 39 39 35 32 21 22 26 29 27 29 31 30 30 30 27 27 27 30 31 27 31 25 24 24 22 22 22 22 23 21 21 22 23 22 21 22
41 41 40 38 36 33 36 41 39 40 35 25 21 19 25 30 32 35 35 32 25 30 23 26 28 27 25 32 29 24 23 22 21 22 19 19 20 19 19 19 20 20 20 20
40 38 34 29 34 42 40 35 32 32 33 32 25 27 23 29 30 33 26 31 27 24 28 30 28 25 27 26 26 23 21 19 19 18 16 17 17 17 17 17 18 18 19 20
36 32 31 37 41 35 31 24 26 25 24 28 27 25 24 29 24 24 30 26 24 23 27 26 26 27 27 26 25 21 19 18 17 17 16 15 17 16 16 16 17 17 18 18
35 36 38 37 33 29 24 23 24 25 22 26 25 26 26 27 31 26 26 24 24 20 31 28 24 26 26 24 21 20 19 18 17 16 16 15 14 16 16 15 15 15 17 16
38 33 29 27 26 23 17 13 20 20 25 28 28 24 29 29 30 27 22 23 21 29 22 24 24 25 24 22 19 19 19 20 19 17 17 16 15 15 17 14 15 16 16 14
29 27 22 22 18 21 23 23 23 27 28 29 29 26 25 26 24 23 23 23 26 17 15 22 24 24 23 21 22 20 20 20 20 18 18 17 15 16 14 10 9 8 11 8
26 27 15 21 25 27 28 28 28 29 32 31 28 27 26 23 22 25 24 21 20 21 22 25 26 24 23 23 23 22 21 18 19 21 13 13 10 10 9 9 11 11 7 4
30 26 22 26 23 26 30 31 32 33 30 32 32 25 22 18 25 24 20 19 17 24 26 26 24 24 23 23 23 21 19 19 18 13 12 10 8 7 14 14 15 6 7 3
25 21 26 24 29 30 31 32 32 32 29 29 31 27 20 25 20 21 24 20 25 26 25 25 26 24 22 24 24 18 21 22 17 10 10 13 17 8 10 9 9 10 16 6

GFSNW_sfc_dewp_132.txt.gz
Dewpoint
45 43 41 39 38 39 37 36 28 35 40 32 33 17 20 21 15 19 18 19 15 13 13 15 18 17 21 25 26 21 24 22 17 16 18 25 22 24 28 22 21 25 24 22
45 42 40 39 38 38 37 34 26 35 39 26 22 20 17 17 14 13 12 15 15 16 19 16 20 20 24 23 23 23 26 22 15 11 14 20 19 19 21 27 29 21 19 15
42 41 41 39 37 39 36 35 26 29 33 29 23 23 22 16 20 15 12 13 20 20 19 22 20 22 24 25 23 29 29 25 20 15 19 22 21 18 18 19 20 17 17 20
41 40 41 39 38 39 38 37 30 29 26 25 24 23 19 19 19 19 19 21 23 23 20 21 21 21 22 23 25 29 27 22 23 23 23 21 21 20 16 14 15 17 13 17
40 41 40 38 40 40 37 31 29 29 26 25 22 24 21 19 18 21 22 21 22 24 22 21 20 22 22 23 25 25 29 19 23 22 21 19 16 25 26 27 28 21 24 28
42 41 39 39 40 38 36 34 32 30 25 23 21 21 22 23 25 25 24 23 22 24 22 23 23 24 25 24 24 27 31 28 23 18 18 19 19 24 27 29 31 31 25 30
41 40 39 41 40 39 37 36 35 29 23 23 23 24 22 24 26 23 22 23 22 24 26 27 27 27 29 30 29 32 28 23 25 21 21 12 22 23 27 29 27 29 30 30
41 40 40 41 40 40 37 37 35 32 25 22 21 24 24 24 26 23 22 24 24 25 26 24 20 23 23 26 28 29 30 25 24 18 19 18 18 22 24 25 25 28 28 29
40 40 40 40 40 40 38 38 39 35 27 19 21 21 21 19 20 22 25 27 28 28 26 23 19 17 19 18 22 22 26 27 21 22 18 13 23 26 26 25 22 30 33 32
40 40 41 41 41 42 38 36 38 35 26 26 24 20 20 23 24 22 25 24 23 27 21 16 19 19 22 19 14 16 19 17 13 17 16 22 28 28 26 15 18 32 34 33
40 40 41 41 42 42 37 35 37 33 29 31 32 31 26 26 26 24 25 25 24 22 19 18 21 19 20 18 22 18 20 17 12 17 5 9 31 26 22 29 34 34 34 33
41 41 41 42 42 43 38 32 36 37 32 30 33 32 32 29 28 26 26 23 24 24 19 18 19 21 19 18 15 26 15 24 18 25 25 32 35 33 35 34 33 33 34 34
42 41 41 42 42 43 40 35 35 34 29 28 28 25 30 31 29 30 27 28 29 26 29 23 22 20 21 13 17 20 27 32 24 24 29 31 33 35 34 35 35 35 30 29
42 42 42 43 42 42 41 37 38 34 31 24 28 32 29 31 30 29 30 29 29 29 27 23 20 22 24 21 21 20 25 32 26 25 29 32 34 33 34 32 33 30 28 28
42 42 42 42 42 42 40 39 39 38 31 25 26 29 30 31 31 30 29 29 28 26 24 19 20 25 23 23 24 26 30 28 20 19 31 31 32 33 33 29 29 27 26 27
42 42 41 42 43 40 35 31 37 36 35 26 23 30 28 29 29 29 29 29 28 27 25 24 27 27 24 20 21 28 28 30 30 29 32 33 33 27 27 26 27 26 25 25
42 42 42 42 41 37 33 31 36 38 36 27 21 23 28 30 29 28 28 28 28 28 26 24 25 25 28 21 22 29 28 31 31 30 26 27 23 22 24 24 24 24 22 23
42 42 43 43 41 39 35 37 38 38 33 30 16 20 24 28 26 28 31 28 29 28 27 26 25 27 26 24 29 24 24 22 22 21 22 22 21 20 20 21 21 20 20 21
42 42 40 36 35 31 35 40 40 38 32 24 18 19 17 30 32 33 33 30 22 28 20 24 26 25 27 28 26 22 22 21 21 20 19 19 19 18 18 18 18 17 17 20
40 36 29 23 31 41 38 33 30 28 31 29 22 26 22 31 28 32 30 30 28 25 26 28 24 24 26 25 22 21 19 19 20 18 15 16 16 16 16 16 16 16 17 17
33 30 32 35 41 34 28 23 20 22 20 26 26 25 23 28 24 23 28 24 26 20 25 27 27 26 27 22 20 20 18 18 17 17 16 16 16 15 15 14 14 14 15 15
33 36 37 36 31 28 19 18 23 25 22 26 23 25 25 25 29 24 24 22 21 19 31 28 25 27 30 19 18 19 19 17 17 16 15 15 14 15 15 13 13 13 15 13
37 32 26 24 24 13 12 13 20 19 24 25 25 23 26 27 28 26 18 15 21 27 22 22 24 27 25 20 19 18 19 19 18 17 17 15 14 14 16 15 15 14 13 12
26 20 20 20 19 20 22 23 23 26 26 27 28 25 24 24 22 20 12 19 24 14 12 20 22 22 21 20 20 19 19 20 18 18 18 16 15 15 12 7 11 5 8 8
22 24 13 20 23 24 29 27 26 30 29 29 28 25 24 19 17 22 21 18 19 19 17 20 23 23 22 21 21 21 20 17 16 15 12 11 8 8 8 7 8 10 4 1
25 23 20 23 21 22 28 30 31 31 31 30 29 21 17 17 22 23 18 17 15 18 23 24 23 23 23 23 22 20 19 17 13 11 10 7 4 5 6 5 7 6 2 1
22 24 21 20 29 29 29 31 30 29 27 30 29 21 19 24 17 19 24 20 24 23 24 25 24 23 22 22 21 17 19 18 13 9 8 9 8 4 8 6 3 5 7 4

GFSNW_sfc_dewp_135.txt.gz
Dewpoint
48 46 45 43 42 42 38 36 30 35 41 33 33 19 15 22 17 21 19 18 15 13 18 15 17 17 20 24 25 20 23 22 19 15 17 21 21 23 25 16 13 23 23 18
46 44 43 42 42 40 36 32 31 36 38 27 23 20 18 18 14 15 15 16 16 20 18 15 20 22 25 23 22 20 24 21 15 12 15 23 19 20 22 29 28 21 18 16
45 44 42 41 41 40 38 32 26 30 34 33 23 22 19 17 20 16 15 21 22 20 19 21 20 21 24 24 23 27 29 24 19 14 15 20 22 22 22 21 20 18 18 18
44 42 41 40 40 40 39 36 28 29 27 26 23 22 21 19 18 19 22 22 23 21 19 21 20 21 21 23 25 29 27 21 23 22 22 22 22 23 25 23 23 21 21 25
43 41 40 40 39 41 37 32 30 30 27 25 22 24 21 20 19 23 22 21 24 24 22 22 19 21 21 21 24 24 29 20 23 23 24 23 21 22 25 26 26 26 25 25
43 41 40 40 41 40 36 35 34 31 26 22 22 22 23 22 23 24 22 23 23 23 24 23 22 23 22 23 23 24 29 27 24 18 20 21 20 22 24 27 28 29 23 29
42 40 40 41 41 40 36 36 33 30 24 22 24 24 23 24 24 23 23 24 22 22 25 26 26 26 27 28 27 29 27 24 24 21 21 12 22 22 23 28 27 26 27 28
41 40 41 41 41 40 37 37 35 30 25 23 23 22 23 26 27 19 22 23 23 24 25 23 21 22 23 26 27 29 31 25 24 16 19 20 20 22 23 23 24 28 29 29
41 42 41 41 41 41 38 37 38 32 28 19 22 23 23 20 20 20 25 27 28 26 25 23 18 15 19 18 20 22 23 25 19 21 17 13 23 26 28 27 21 30 30 29
41 41 41 41 43 42 37 36 37 30 27 29 22 20 21 24 23 23 23 23 23 25 20 16 18 19 21 19 13 12 18 16 12 17 5 14 27 29 27 16 16 31 32 32
42 42 42 43 44 41 36 33 37 33 30 30 31 29 24 25 25 22 24 24 23 22 18 17 20 20 20 17 20 14 18 16 11 14 4 5 30 26 21 29 33 33 33 33
43 43 43 44 44 41 36 31 36 36 31 30 32 31 30 27 27 26 26 23 23 23 19 17 18 21 19 18 15 23 12 17 16 20 19 29 33 31 34 34 32 33 33 32
43 43 44 44 43 41 38 34 35 32 29 29 25 22 30 29 29 30 26 28 29 26 27 21 21 20 20 12 17 19 23 30 27 21 27 30 30 35 33 33 33 32 30 28
43 43 43 44 44 42 40 36 36 33 29 25 27 31 29 30 29 30 30 29 29 28 26 22 20 21 23 20 20 19 20 31 26 21 29 30 34 31 33 32 31 28 28 27
42 43 43 44 42 41 38 37 36 35 29 25 27 29 30 31 30 30 29 29 27 25 23 18 19 24 23 23 24 19 29 27 20 17 28 27 31 32 31 29 26 26 26 25
43 43 42 42 40 38 35 30 35 36 32 27 23 29 28 29 31 29 29 29 27 26 25 23 26 27 23 18 20 26 28 29 29 27 31 32 29 27 26 26 25 24 24 23
43 43 42 41 40 37 32 29 34 36 34 26 22 24 27 29 29 29 28 28 28 27 25 23 25 25 26 21 22 26 29 30 29 26 31 22 22 22 23 23 22 22 21 21
43 43 42 41 41 39 34 37 40 37 31 28 18 22 25 28 27 27 30 27 28 27 26 26 25 26 25 21 26 25 25 22 22 21 22 21 20 20 20 19 19 18 17 19
43 41 38 35 34 32 34 41 37 36 31 22 18 20 18 31 31 32 31 28 22 28 21 23 25 23 24 26 24 23 22 23 20 19 19 18 18 17 17 17 16 15 15 16
39 35 29 23 32 39 35 32 26 26 27 27 23 25 22 28 29 30 27 27 28 25 24 27 22 23 25 24 22 21 20 21 20 18 16 16 16 15 15 14 14 14 14 14
32 29 31 35 39 32 27 20 20 22 19 25 25 25 24 27 25 26 25 20 26 20 24 24 24 25 25 21 20 19 18 18 17 17 16 16 15 14 14 13 13 12 13 13
32 35 36 35 30 24 18 14 22 24 21 25 23 24 25 25 28 24 25 21 23 21 30 27 21 26 20 20 20 18 18 17 16 16 14 14 14 15 15 13 13 13 13 11
35 31 25 24 23 13 11 14 19 18 25 23 25 21 24 26 27 24 16 14 16 26 25 22 22 27 21 19 18 18 18 18 17 16 15 14 13 14 14 15 16 14 12 10
25 19 17 15 16 18 21 22 23 25 25 25 27 24 24 23 22 18 10 18 23 18 13 19 18 23 20 19 19 18 18 18 17 18 16 15 15 15 13 7 5 5 8 6
23 21 11 18 21 26 28 28 28 31 26 27 26 24 23 17 16 21 18 15 19 20 14 19 20 22 21 21 20 20 20 15 14 12 10 8 7 7 7 6 4 9 5 1
24 22 22 21 22 27 29 31 30 31 31 29 28 20 13 14 17 18 13 18 13 13 17 21 24 23 23 23 22 21 19 14 11 8 8 7 4 5 6 1 2 1 -0 -2
21 24 25 20 22 27 25 30 29 30 28 26 24 15 15 22 17 20 22 16 14 18 22 25 26 24 22 20 20 17 18 18 14 9 8 6 5 4 7 6 3 4 3 4

GFSNW_sfc_dewp_138.txt.gz
Dewpoint
51 49 48 46 45 43 41 39 31 36 41 32 30 26 16 22 17 20 19 17 15 14 16 15 16 16 21 24 23 18 23 21 18 15 18 18 21 23 23 15 16 21 21 17
50 48 47 45 43 41 38 33 33 37 37 23 22 20 18 18 15 15 15 15 17 21 17 15 19 21 24 22 19 19 23 20 13 9 13 21 19 21 22 26 26 17 15 16
48 47 46 44 42 42 36 34 28 32 35 33 22 22 20 17 19 16 20 21 21 19 19 21 20 20 23 25 23 24 28 22 17 11 11 18 19 21 23 24 21 17 18 18
47 46 45 43 41 43 40 34 29 29 27 27 25 24 22 17 18 21 23 21 21 19 20 20 19 20 20 22 28 28 26 20 22 21 21 21 21 22 22 25 24 21 23 26
45 44 43 41 43 42 38 32 29 31 28 28 23 25 19 18 21 22 22 22 24 23 21 21 20 19 20 20 24 23 28 18 22 21 23 24 22 21 22 26 25 24 27 28
44 44 43 42 43 40 35 35 33 32 27 24 20 22 23 20 24 24 23 26 24 22 23 23 21 21 21 22 22 24 27 25 23 16 21 21 19 21 22 25 27 27 22 27
44 44 43 42 43 39 36 35 33 30 23 20 23 25 23 22 22 23 24 23 21 23 25 26 26 24 24 24 25 27 27 26 25 20 21 12 20 23 23 25 25 26 26 26
43 43 42 43 43 41 36 38 34 30 26 25 25 23 24 25 23 22 23 23 23 26 25 23 22 21 22 25 27 27 28 25 23 15 18 18 23 23 23 22 24 27 26 27
42 42 43 43 43 42 37 37 38 32 29 21 23 24 24 20 20 22 25 27 27 26 25 23 18 14 18 18 19 24 25 24 18 20 16 12 22 26 28 28 20 30 29 29
43 43 43 43 44 42 37 36 37 31 29 29 24 23 21 24 23 23 24 22 23 25 19 17 17 19 21 18 12 9 18 16 10 18 4 12 25 28 28 19 18 32 31 31
43 43 44 44 44 41 36 34 36 33 30 29 30 27 25 25 25 22 23 22 22 22 18 16 20 19 20 17 18 14 9 14 8 13 3 4 28 27 21 26 31 33 32 32
43 44 44 43 42 40 36 32 35 35 31 29 32 31 30 26 26 26 26 21 23 22 18 16 19 20 18 17 13 22 14 15 14 16 16 26 31 29 31 34 32 33 32 30
44 44 44 44 43 40 37 34 34 32 31 30 28 27 30 30 29 30 26 27 29 26 25 20 21 19 20 11 16 19 21 29 27 21 25 28 29 30 31 32 31 31 29 28
44 44 44 44 43 41 38 35 36 32 30 26 27 30 29 30 30 30 29 29 29 28 26 21 19 21 23 19 19 19 18 28 26 23 27 28 31 32 30 31 28 27 27 26
44 43 43 42 41 39 37 37 36 34 29 26 26 28 31 30 30 30 29 28 26 24 23 18 19 24 23 23 24 16 26 26 21 17 23 21 26 29 30 27 25 25 24 23
43 43 42 41 40 36 33 28 34 35 31 27 23 28 27 30 30 29 28 28 27 26 23 22 26 27 23 17 20 24 28 28 26 27 30 30 27 25 25 25 24 23 22 21
43 42 42 41 40 38 32 27 32 36 32 27 21 25 26 29 28 28 27 28 28 26 24 22 25 25 26 21 21 23 28 29 27 27 24 22 22 22 21 21 21 20 19 20
42 42 42 41 39 37 34 37 39 34 28 27 19 23 26 28 26 27 29 27 27 27 25 26 25 26 24 19 23 26 24 22 21 21 22 21 21 19 18 18 17 15 15 15
41 40 38 35 34 30 34 38 35 35 29 20 20 21 19 31 30 32 31 27 20 27 20 23 24 23 21 24 25 23 21 21 20 20 19 19 18 17 16 15 14 12 12 13
37 33 28 25 33 38 34 29 25 24 25 26 23 25 22 28 29 28 25 25 25 19 23 26 21 23 26 24 25 23 22 21 20 18 17 17 16 15 15 13 13 11 11 12
32 28 31 34 38 30 26 19 18 20 18 25 25 25 25 28 24 27 25 22 25 17 23 22 22 21 23 21 20 19 18 18 17 17 16 15 15 14 14 12 12 11 11 13
33 35 36 34 28 22 18 12 21 23 19 25 23 24 24 25 28 26 27 22 25 19 28 21 19 21 20 18 18 17 17 16 16 15 14 14 13 15 14 13 14 14 13 9
34 30 24 24 22 10 5 10 16 17 25 24 25 19 23 26 26 23 16 12 14 26 24 21 21 22 21 20 18 17 17 17 16 15 15 14 14 14 14 15 15 13 11 7
25 19 17 14 14 15 19 21 22 24 25 25 26 24 24 23 21 17 9 17 22 15 11 17 19 23 21 19 18 17 17 18 17 17 16 15 15 14 11 5 5 4 8 4
23 21 12 15 19 26 27 28 29 30 26 27 25 23 22 16 16 20 17 12 11 16 13 16 20 22 20 19 19 20 19 16 14 11 9 6 5 6 5 3 3 7 -0 -2
25 23 21 25 26 27 30 30 29 31 30 26 25 17 12 13 17 15 12 13 10 12 16 23 21 22 24 23 23 22 19 16 10 8 6 4 3 3 4 -1 -1 -4 -3 -2
21 22 25 23 22 25 28 25 28 30 25 19 19 11 13 21 17 16 19 12 14 16 23 18 21 23 22 21 20 18 17 16 13 9 9 8 5 3 7 6 1 0 -1 -3

GFSNW_sfc_dewp_141.txt.gz
Dewpoint
48 49 50 49 47 43 41 38 30 39 43 32 31 24 24 22 15 19 16 18 15 13 13 14 14 17 21 24 21 16 22 19 11 10 17 18 20 21 25 19 16 21 19 12
47 49 50 47 44 44 41 35 34 41 39 27 28 27 18 17 16 16 14 14 16 20 17 15 19 21 23 20 20 19 24 19 9 10 14 21 19 21 23 25 26 19 17 11
47 48 49 46 44 44 42 35 29 35 36 33 27 23 19 15 19 18 19 20 21 21 19 21 20 19 23 23 21 28 27 20 13 3 7 17 17 19 21 23 20 16 17 18
47 48 48 45 45 45 40 35 30 30 27 29 26 23 21 17 16 21 23 20 20 20 19 19 18 19 19 23 31 29 26 20 21 21 21 21 20 21 22 21 22 21 17 22
48 49 46 45 45 45 39 32 30 31 25 27 28 26 20 17 19 23 21 21 22 21 21 24 21 19 19 20 24 24 29 22 25 21 21 22 22 22 20 22 25 24 22 23
48 47 45 44 45 44 38 36 34 30 25 28 24 23 22 21 25 25 24 27 26 22 22 24 24 22 24 25 23 27 27 24 21 14 19 21 18 20 19 20 26 25 21 26
47 45 44 45 44 42 38 35 34 32 25 25 21 24 24 24 23 24 25 25 23 24 28 29 27 25 23 24 25 29 26 25 24 18 19 12 21 23 22 24 24 25 25 25
46 45 44 44 43 41 38 38 34 31 26 22 26 26 24 26 26 24 23 23 25 29 27 26 22 22 24 26 27 25 27 25 22 19 17 17 22 22 23 22 23 27 26 25
44 44 44 44 43 41 39 38 37 35 29 23 24 24 24 21 21 24 26 28 28 29 26 24 18 18 18 21 21 26 27 26 23 21 15 13 21 25 27 28 19 29 29 28
44 43 43 43 44 42 38 36 38 32 30 29 26 25 21 25 25 24 25 25 24 27 24 23 19 18 19 17 16 19 21 21 20 19 17 18 24 27 28 19 22 30 33 31
43 43 43 44 44 41 37 34 37 34 32 30 30 28 26 27 26 22 26 25 24 24 22 21 21 21 21 20 19 21 19 19 19 17 15 13 27 26 21 27 30 33 33 32
42 43 44 44 43 41 37 33 35 36 32 30 32 31 30 30 28 27 26 23 23 25 23 23 24 23 23 19 15 24 21 23 23 22 21 27 31 28 30 32 31 31 30 29
44 44 44 43 43 41 36 33 34 32 32 30 30 28 32 32 32 33 26 28 28 26 26 25 26 22 20 20 18 23 23 27 26 26 27 29 30 30 31 32 32 30 28 26
43 43 44 43 42 40 37 35 36 33 31 28 28 32 31 32 33 32 32 30 30 29 26 25 24 22 23 18 19 21 24 28 25 25 27 29 30 32 33 33 29 26 25 24
44 43 43 42 41 39 36 37 37 34 30 28 27 31 32 32 31 30 30 30 28 26 27 26 23 23 23 23 23 24 27 26 25 26 27 28 29 31 31 27 25 24 22 20
42 42 41 40 39 35 33 32 33 35 33 30 26 29 30 31 31 30 30 29 28 26 26 26 26 27 24 23 21 24 25 30 28 29 30 30 28 25 25 24 23 21 20 20
43 43 42 41 40 38 32 30 32 36 33 30 26 26 27 29 29 30 28 30 29 28 28 27 25 25 28 26 22 24 29 29 29 30 27 24 23 22 19 19 19 18 16 17
41 41 41 40 39 37 33 37 37 33 28 29 22 25 26 29 28 29 31 28 28 29 27 28 27 28 27 22 23 27 26 23 22 22 24 23 20 18 16 16 14 13 12 12
42 40 38 36 34 32 34 38 34 33 30 24 24 23 23 32 30 32 31 28 26 28 27 26 26 25 22 23 25 26 23 23 20 19 19 18 17 16 14 13 12 10 10 11
36 32 30 26 35 38 32 28 25 25 26 28 25 26 26 30 29 29 29 29 26 23 25 27 25 23 25 25 26 25 23 21 20 19 17 16 15 14 13 12 11 10 10 11
33 30 32 34 38 29 26 19 19 21 19 26 25 26 27 30 27 27 27 26 26 20 24 25 23 23 24 21 21 21 20 18 17 16 15 14 14 14 13 12 12 11 12 13
33 34 35 32 27 21 16 17 21 22 18 25 26 25 26 28 30 28 28 25 26 19 28 25 21 24 21 19 18 18 17 16 15 14 14 14 13 14 14 14 14 14 14 12
33 28 21 23 20 9 5 11 19 21 25 26 26 24 28 28 28 26 23 20 19 28 24 19 23 23 19 18 19 16 16 16 15 14 13 14 14 15 15 15 15 15 14 12
24 16 12 14 10 16 19 21 22 25 26 26 27 26 27 26 24 21 18 20 23 19 17 20 23 23 21 20 19 17 17 18 19 15 14 15 15 15 13 11 11 12 13 10
23 20 10 15 21 25 28 30 29 28 29 28 27 25 26 22 21 22 20 21 16 17 18 22 24 24 21 21 19 19 18 19 18 17 15 13 12 13 12 10 10 11 9 9
26 22 23 26 26 28 30 29 28 30 29 28 26 21 19 21 21 18 17 17 15 20 22 25 24 22 23 23 22 23 21 19 17 15 14 12 11 12 12 9 9 6 7 9
22 25 25 25 28 27 28 29 29 31 28 25 22 16 17 23 19 18 20 19 21 22 25 23 24 24 25 24 22 20 19 18 16 14 14 14 12 10 13 13 13 11 10 8

GFSNW_sfc_dewp_144.txt.gz
Dewpoint
47 46 49 49 49 46 44 39 30 41 44 36 36 28 22 21 12 15 14 15 14 13 11 10 12 15 16 18 17 12 15 10 2 3 13 15 13 17 22 20 18 20 21 10
47 47 47 48 47 46 42 34 33 41 43 31 31 28 20 14 13 13 12 14 15 17 14 13 16 20 21 18 17 16 18 11 6 9 16 18 16 18 20 24 25 18 18 9
47 47 47 48 46 46 43 36 30 33 38 34 30 28 26 15 17 15 14 16 18 19 18 18 19 20 22 21 17 24 23 11 6 -0 8 15 16 15 16 18 18 12 13 13
46 46 48 49 46 46 42 35 34 33 29 32 30 29 26 21 20 20 20 19 15 16 17 17 17 20 22 22 25 24 22 16 13 13 14 15 15 14 15 16 16 16 14 16
46 46 47 47 46 46 39 33 35 35 30 31 27 29 21 23 17 19 18 18 17 18 18 21 19 19 18 19 27 26 26 24 23 20 18 19 18 18 19 18 17 18 19 19
45 46 46 46 46 45 39 39 39 34 32 29 25 25 21 16 21 23 20 25 24 17 20 21 21 20 21 23 23 26 27 22 20 11 17 17 16 19 18 18 24 27 21 24
46 46 46 46 46 45 45 39 38 35 30 27 24 20 20 22 25 23 24 24 19 24 26 24 24 25 24 24 28 30 25 23 22 16 18 12 23 22 20 22 22 23 22 23
45 46 46 46 46 44 43 43 41 38 29 25 24 21 20 24 27 24 23 23 25 29 23 21 18 22 23 24 24 25 25 22 21 20 14 14 20 21 22 21 21 24 24 23
46 46 47 46 45 44 43 43 44 35 36 25 24 22 24 22 23 24 26 29 31 29 24 22 13 15 13 20 24 27 25 26 25 20 8 9 23 24 25 26 22 28 27 26
47 47 46 45 44 44 44 41 42 33 36 28 27 25 24 22 22 21 25 26 25 29 27 25 18 16 17 19 22 24 25 26 24 20 21 18 25 25 27 20 26 28 30 30
45 46 45 45 44 42 39 37 40 34 33 31 28 27 27 26 25 22 25 21 24 25 24 25 20 21 19 20 19 26 25 25 23 22 21 17 25 26 24 30 30 30 29 30
45 45 45 45 44 40 39 33 36 37 32 30 34 33 32 28 26 26 26 22 23 30 30 29 28 25 25 19 17 25 26 31 29 27 27 32 31 31 33 31 30 29 29 28
45 44 44 45 43 40 39 34 36 35 36 32 29 29 32 33 33 33 21 27 28 26 29 31 28 22 21 22 18 25 28 28 32 28 29 29 32 31 31 32 31 30 28 26
44 44 44 44 43 40 39 36 37 34 33 33 29 31 31 33 34 33 33 32 32 30 25 24 24 22 23 16 17 20 29 29 28 27 30 30 31 31 32 31 31 28 26 23
44 44 44 43 41 40 39 39 38 36 29 29 28 30 31 32 32 32 32 30 27 22 27 30 23 19 20 21 19 22 24 25 28 28 34 33 33 35 33 31 28 24 22 20
43 43 42 41 40 39 32 40 33 34 33 36 27 30 30 31 32 31 30 29 28 25 24 24 22 26 23 22 14 17 21 27 30 30 31 32 32 29 27 25 24 21 19 18
42 42 41 41 41 39 39 35 33 35 36 38 28 23 29 30 29 30 29 31 28 25 28 27 21 22 27 27 16 22 27 28 29 30 28 26 25 24 22 21 19 17 15 15
41 41 40 40 40 38 33 35 36 36 31 32 30 26 24 29 26 27 31 25 28 31 28 30 27 28 29 23 19 25 29 27 29 28 27 26 24 21 17 15 15 13 12 11
40 40 40 38 37 38 34 36 34 37 33 32 33 26 24 30 30 33 32 32 32 30 31 28 27 26 25 23 21 25 27 27 24 23 22 21 20 17 15 13 12 11 11 10
39 38 38 32 36 38 32 32 35 36 35 34 29 27 28 28 30 31 32 34 30 28 27 27 28 25 26 26 28 28 27 24 24 23 22 19 17 16 14 12 11 11 11 10
39 35 32 36 38 30 31 32 31 28 31 29 27 25 26 31 30 29 31 30 29 25 25 26 25 25 26 25 24 24 23 22 23 21 18 17 17 15 14 13 12 12 12 12
36 36 35 33 29 29 26 25 26 21 21 27 27 27 28 32 34 31 31 26 30 20 28 27 23 27 24 22 21 22 23 21 18 16 15 15 14 14 14 14 14 13 14 16
34 30 31 28 25 20 18 17 23 24 27 29 29 31 32 32 33 30 32 26 25 27 25 20 23 26 22 22 24 21 18 17 16 15 14 14 14 15 14 14 16 16 16 16
31 31 19 23 20 21 21 21 24 29 30 30 30 31 31 31 30 30 25 27 26 23 21 20 28 26 22 23 23 18 17 19 20 16 15 15 16 16 16 16 16 16 16 15
29 26 21 23 26 28 29 30 30 32 33 31 30 31 31 30 28 27 25 24 21 20 21 30 30 27 23 23 22 20 20 21 22 20 19 18 17 16 16 16 16 16 15 15
29 27 24 28 28 28 29 31 32 33 33 33 30 29 29 27 27 25 19 18 16 25 30 32 29 27 26 25 23 24 25 24 22 21 20 19 17 16 16 16 15 13 14 15
29 28 31 32 29 29 30 33 31 34 36 31 29 24 23 27 24 22 23 25 29 31 30 30 29 28 28 27 27 24 24 22 21 20 20 20 19 16 16 15 16 16 16 14

GFSNW_sfc_dewp_147.txt.gz
Dewpoint
47 48 48 49 50 48 45 40 33 42 45 34 36 33 33 31 16 14 14 18 18 16 15 13 13 12 15 15 15 11 12 11 6 7 5 9 8 16 20 21 14 18 17 9
46 47 47 49 49 47 43 34 32 40 42 31 32 34 33 23 18 14 16 19 20 19 18 14 13 15 19 15 16 13 16 9 5 4 11 13 11 12 17 21 24 14 17 8
46 47 47 47 48 47 43 35 29 35 36 37 35 33 31 21 18 18 14 14 17 18 16 16 15 20 21 19 16 27 24 12 9 2 10 14 13 11 12 15 16 11 10 10
46 46 47 47 48 47 43 38 35 32 31 34 36 35 31 22 18 17 16 16 18 17 17 18 19 21 21 19 26 18 18 15 10 5 8 9 9 10 10 10 11 12 10 10
45 46 46 47 47 47 41 33 37 35 30 32 33 37 32 29 19 21 19 19 18 18 21 26 21 20 22 19 21 18 20 22 20 16 10 7 8 8 9 10 11 11 12 14
46 46 45 46 47 47 39 40 40 36 34 31 33 34 32 29 25 25 23 24 25 25 23 23 22 23 21 19 22 24 25 21 18 12 12 13 13 14 12 15 18 24 19 21
45 45 45 45 47 47 43 41 41 40 33 32 32 31 31 28 28 25 23 25 23 23 24 24 22 20 20 21 22 27 25 22 19 14 16 11 17 18 17 17 20 19 20 21
45 45 45 45 47 47 45 41 43 41 34 32 30 29 29 25 25 22 23 21 25 27 23 24 20 21 21 22 23 22 22 21 20 18 12 15 19 20 19 19 19 23 22 22
44 44 45 46 47 47 45 44 46 40 39 32 32 29 29 23 23 21 27 27 30 27 19 18 11 16 12 17 19 21 21 25 25 19 14 10 23 23 22 23 21 27 25 25
45 45 45 45 46 47 44 43 45 42 40 34 36 32 26 25 25 25 27 27 27 27 25 27 17 14 13 16 21 24 23 25 23 20 20 18 24 23 25 20 27 29 28 28
44 45 45 46 46 47 44 42 45 44 38 34 35 27 28 27 27 25 29 24 24 25 24 27 16 18 17 17 19 27 26 25 23 22 23 17 24 25 23 31 30 30 29 29
44 45 45 46 47 45 43 40 44 45 37 33 36 35 34 29 27 25 28 22 23 27 31 28 23 24 24 18 18 25 28 32 28 24 27 30 28 31 34 31 30 30 29 29
45 45 46 46 45 44 44 42 44 38 38 33 30 31 34 34 32 33 22 23 26 28 30 31 26 22 23 22 18 25 27 27 33 28 29 28 32 31 31 31 30 29 28 26
46 45 44 44 44 43 41 42 41 37 33 35 30 32 32 33 32 30 28 30 31 32 28 26 26 22 22 17 18 20 30 27 28 29 30 30 30 31 31 30 30 28 27 24
44 44 44 43 43 43 41 41 38 37 30 32 30 32 32 31 32 32 31 31 29 23 24 32 21 17 17 18 15 22 23 25 29 29 36 34 33 35 32 31 28 26 23 21
44 44 44 43 41 40 34 40 34 35 33 36 29 31 31 30 30 28 27 26 24 22 24 21 20 25 23 22 12 15 16 21 26 27 31 33 34 32 30 28 26 23 20 18
44 42 42 41 42 39 40 32 34 37 35 39 30 25 29 29 29 28 27 28 26 23 25 25 20 18 24 26 13 18 18 23 25 29 30 29 27 26 26 25 22 18 16 15
42 41 40 39 38 37 31 35 36 38 31 31 32 26 26 29 25 27 28 24 25 28 25 26 24 25 29 24 19 21 23 25 29 28 28 28 27 24 21 19 16 15 14 14
41 42 41 38 36 38 30 34 38 41 33 33 34 27 26 29 30 29 29 27 31 29 32 27 26 25 25 23 19 22 25 28 28 26 25 25 23 20 17 15 14 14 13 12
41 39 40 34 35 37 34 33 37 40 37 33 30 26 27 28 29 30 32 33 29 28 27 25 28 25 26 25 26 25 26 26 26 26 25 23 21 18 16 14 14 13 12 12
41 37 35 31 34 32 33 34 34 33 32 28 26 25 24 27 29 30 31 32 30 26 25 26 24 25 27 26 27 27 27 27 27 25 25 22 21 18 16 15 14 14 13 13
36 34 34 32 29 32 31 29 28 23 22 25 27 25 27 31 32 31 32 27 32 22 27 27 23 29 27 25 25 25 25 24 22 21 20 18 16 16 16 16 15 15 15 17
31 30 33 30 30 27 31 22 23 27 28 29 30 32 32 33 32 32 32 30 27 27 26 20 24 27 25 25 26 27 25 23 20 17 17 17 16 16 16 16 17 16 18 17
34 34 23 30 27 23 24 22 26 31 32 32 30 33 31 32 32 32 29 26 26 24 23 18 27 27 25 27 25 21 20 20 26 19 17 17 17 17 17 18 18 17 17 16
33 29 25 25 26 29 30 32 33 33 34 31 31 31 32 32 30 28 25 26 23 21 22 31 31 28 26 27 25 22 22 23 23 23 21 20 19 18 17 17 18 17 16 16
30 30 27 30 29 29 33 34 35 36 35 32 30 31 32 29 29 28 24 20 18 26 32 33 30 27 27 27 25 26 26 26 25 23 21 20 18 18 19 17 16 15 15 15
31 30 33 32 31 31 33 35 34 36 36 33 30 30 26 27 25 22 23 27 31 33 33 33 31 29 30 30 28 27 26 25 24 23 22 21 20 18 18 18 18 18 17 16

GFSNW_sfc_dewp_150.txt.gz
Dewpoint
46 47 48 49 49 50 47 43 34 42 45 34 36 33 33 36 31 27 22 20 19 20 19 18 15 15 15 13 16 13 14 13 7 7 5 5 7 12 19 22 17 19 18 12
45 46 47 48 49 49 44 36 33 41 43 31 31 34 33 34 31 26 21 20 22 24 22 19 19 18 18 14 16 14 15 11 8 3 6 11 11 7 10 23 23 20 16 7
44 46 46 47 48 49 43 35 30 33 35 37 35 32 34 32 33 26 18 20 23 22 20 23 21 19 19 18 17 30 25 10 9 6 5 11 15 8 9 17 18 12 13 11
44 45 46 46 47 49 44 38 34 33 29 32 35 35 38 32 24 26 20 21 22 22 21 21 18 22 21 19 23 19 18 13 10 7 6 5 10 10 7 9 12 13 9 8
44 45 45 46 46 48 42 34 38 35 32 32 34 35 36 36 25 20 21 19 19 21 22 25 22 22 21 20 21 19 19 19 21 19 8 3 6 3 7 7 7 5 6 9
44 44 44 45 45 47 41 41 44 37 35 33 33 35 34 34 27 22 20 27 28 24 22 23 23 25 25 21 23 24 22 20 18 14 10 9 8 8 6 7 14 20 18 18
44 45 44 44 45 46 43 42 44 39 35 32 31 31 33 33 32 30 29 30 28 25 25 27 27 26 25 21 22 25 21 22 22 17 17 9 13 16 16 16 16 18 17 18
44 44 45 44 45 47 45 43 44 41 36 31 30 31 32 35 37 37 30 27 26 30 26 25 20 21 19 18 19 21 23 23 21 18 14 11 18 19 17 16 15 19 19 21
44 44 45 44 45 47 46 45 46 44 39 34 31 31 35 37 36 28 26 28 32 32 26 24 16 18 16 18 19 21 20 25 26 21 15 13 23 21 21 22 17 23 24 24
44 44 44 45 45 46 46 44 46 44 40 39 35 35 37 33 29 27 28 28 30 32 27 28 17 14 14 15 20 23 22 25 25 22 21 20 23 22 22 17 25 29 28 28
43 44 44 45 45 46 45 43 46 44 42 39 39 36 36 33 29 28 30 27 27 26 26 27 18 19 18 19 19 27 24 24 23 22 21 18 23 24 21 31 31 30 29 30
43 43 44 45 45 46 45 41 45 48 42 40 43 39 39 37 31 30 32 27 29 33 34 29 26 24 27 19 21 25 25 31 28 28 26 30 28 34 34 33 32 31 30 29
43 44 44 45 45 46 46 43 44 43 39 39 35 33 35 35 35 37 29 30 27 27 32 33 27 23 22 25 20 26 26 30 35 30 30 28 32 32 31 31 31 29 28 27
44 44 44 44 45 46 45 43 45 43 39 35 34 34 32 32 35 35 34 32 32 35 34 30 29 26 23 21 21 26 32 27 29 29 29 30 30 31 31 30 31 28 26 25
44 44 45 45 46 45 45 45 47 45 38 33 32 33 31 31 32 32 33 35 35 30 32 36 27 20 20 20 19 32 25 26 30 28 35 34 31 34 32 32 29 28 25 23
44 44 45 46 45 45 43 38 46 45 36 35 31 32 30 30 30 31 30 32 31 29 26 24 25 26 27 27 15 12 16 20 26 26 31 33 34 32 31 31 28 24 21 19
45 45 44 44 45 44 41 36 39 39 37 39 31 29 30 31 28 29 29 32 27 28 29 29 22 18 27 30 14 15 15 20 23 29 30 29 28 27 28 28 25 19 17 16
43 44 44 44 43 41 37 37 40 41 33 32 33 28 28 28 28 27 28 27 30 30 25 27 28 24 28 23 20 19 19 24 27 27 29 29 27 26 23 22 18 16 15 15
43 43 43 40 35 39 34 36 40 46 37 34 36 29 26 30 27 28 28 28 33 28 34 27 27 25 23 21 20 20 25 28 28 27 26 26 25 21 19 17 16 16 14 14
43 39 38 34 35 39 37 37 38 41 40 37 32 27 29 30 31 32 35 37 32 29 29 25 28 28 25 24 24 25 25 28 27 26 25 24 22 21 18 16 15 15 14 14
40 39 34 32 37 35 36 35 35 35 34 31 28 27 27 30 31 32 32 33 32 26 25 25 23 26 27 26 27 28 27 28 29 28 27 25 24 19 18 17 16 16 16 16
35 32 35 34 32 36 31 31 31 27 23 26 28 27 29 32 33 32 34 27 33 23 26 28 23 29 27 27 26 27 27 25 23 22 21 22 21 21 20 19 17 17 17 17
36 35 34 34 32 28 29 21 25 27 30 30 30 31 32 34 33 33 33 29 26 27 26 21 27 28 26 26 26 26 26 26 24 21 19 19 18 19 19 18 18 19 18 18
36 35 24 31 28 28 31 28 29 34 32 31 32 34 32 34 32 33 27 27 26 23 21 20 29 26 26 26 27 25 22 24 25 20 19 18 17 17 19 18 18 18 18 16
33 30 23 24 28 31 33 38 35 34 34 33 33 32 32 31 30 28 25 25 21 21 22 32 31 29 28 28 26 23 22 23 24 24 21 19 19 18 18 19 19 18 16 16
31 31 28 30 31 32 34 36 36 37 37 35 32 32 32 30 28 26 23 20 19 27 34 34 30 29 29 28 27 27 26 27 25 22 21 20 18 19 19 18 17 16 16 16
32 30 34 33 32 32 32 35 36 39 37 33 31 30 25 28 25 21 23 31 33 34 35 35 31 30 31 29 28 26 27 26 25 24 22 21 21 19 19 18 17 20 17 15